Time,TemperatureF,DewpointF,PressureIn,WindDirection,WindDirectionDegrees,WindSpeedMPH,WindSpeedGustMPH,Humidity,HourlyPrecipIn,Conditions,Clouds,dailyrainin,SoftwareType,DateUTC
2013-05-06 00:02:00,50.0,41.0,30.06,NNE,22,4.0,9.0,70,0.00,,,0.00,,2013-05-06 05:02:00,
2013-05-06 00:12:00,50.0,41.0,30.06,NNE,22,4.0,9.0,70,0.00,,,0.00,,2013-05-06 05:12:00,
2013-05-06 00:22:00,49.0,40.0,30.06,NE,49,2.0,9.0,71,0.00,,,0.00,,2013-05-06 05:22:00,
2013-05-06 00:32:00,49.0,40.0,30.06,NE,49,3.0,6.0,72,0.00,,,0.00,,2013-05-06 05:32:00,
2013-05-06 00:42:00,49.0,40.0,30.06,NE,49,3.0,6.0,72,0.00,,,0.00,,2013-05-06 05:42:00,
2013-05-06 00:52:00,48.0,40.0,30.06,NNE,22,3.0,5.0,74,0.00,,,0.00,,2013-05-06 05:52:00,
2013-05-06 01:02:00,47.0,39.0,30.06,NNE,30,4.0,6.0,75,0.00,,,0.00,,2013-05-06 06:02:00,
2013-05-06 01:12:00,47.0,39.0,30.06,NNE,30,4.0,6.0,75,0.00,,,0.00,,2013-05-06 06:12:00,
2013-05-06 01:21:00,47.0,39.0,30.06,NE,56,3.0,6.0,75,0.00,,,0.00,,2013-05-06 06:21:00,
2013-05-06 01:31:00,44.0,38.0,30.06,NNE,26,5.0,8.0,78,0.00,,,0.00,,2013-05-06 06:31:00,
2013-05-06 01:42:00,44.0,38.0,30.06,NNE,26,5.0,8.0,78,0.00,,,0.00,,2013-05-06 06:42:00,
2013-05-06 01:52:00,43.0,38.0,30.06,NE,43,2.0,6.0,81,0.00,,,0.00,,2013-05-06 06:52:00,
2013-05-06 02:01:00,43.0,38.0,30.06,NNE,15,4.0,8.0,83,0.00,,,0.00,,2013-05-06 07:01:00,
2013-05-06 02:11:00,43.0,38.0,30.06,NNE,15,4.0,8.0,83,0.00,,,0.00,,2013-05-06 07:11:00,
2013-05-06 02:22:00,44.0,38.0,30.06,North,5,4.0,6.0,80,0.00,,,0.00,,2013-05-06 07:22:00,
2013-05-06 02:31:00,44.0,38.0,30.06,NNE,13,4.0,9.0,79,0.00,,,0.00,,2013-05-06 07:31:00,
2013-05-06 02:42:00,44.0,38.0,30.06,NNE,13,4.0,9.0,79,0.00,,,0.00,,2013-05-06 07:42:00,
2013-05-06 02:52:00,44.0,38.0,30.06,North,7,3.0,5.0,80,0.00,,,0.00,,2013-05-06 07:52:00,
2013-05-06 03:01:00,43.0,37.0,30.06,NNE,12,3.0,5.0,80,0.00,,,0.00,,2013-05-06 08:01:00,
2013-05-06 03:12:00,43.0,37.0,30.06,NNE,12,3.0,5.0,80,0.00,,,0.00,,2013-05-06 08:12:00,
2013-05-06 03:22:00,42.0,37.0,30.06,North,359,3.0,4.0,82,0.00,,,0.00,,2013-05-06 08:22:00,
2013-05-06 03:31:00,42.0,37.0,30.06,NNE,25,3.0,4.0,82,0.00,,,0.00,,2013-05-06 08:31:00,
2013-05-06 03:41:00,42.0,37.0,30.06,NNE,25,3.0,4.0,82,0.00,,,0.00,,2013-05-06 08:41:00,
2013-05-06 03:52:00,42.0,37.0,30.06,NNE,25,2.0,4.0,82,0.00,,,0.00,,2013-05-06 08:52:00,
2013-05-06 04:01:00,41.0,36.0,30.06,NNE,25,2.0,4.0,83,0.00,,,0.00,,2013-05-06 09:01:00,
2013-05-06 04:11:00,41.0,36.0,30.06,NNE,25,2.0,4.0,83,0.00,,,0.00,,2013-05-06 09:11:00,
2013-05-06 04:22:00,41.0,36.0,30.06,NNE,25,2.0,4.0,83,0.00,,,0.00,,2013-05-06 09:22:00,
2013-05-06 04:32:00,41.0,37.0,30.06,NNE,16,3.0,5.0,85,0.00,,,0.00,,2013-05-06 09:32:00,
2013-05-06 04:42:00,41.0,37.0,30.06,NNE,16,3.0,5.0,85,0.00,,,0.00,,2013-05-06 09:42:00,
2013-05-06 04:53:00,41.0,36.0,30.06,NNE,18,2.0,5.0,83,0.00,,,0.00,,2013-05-06 09:53:00,
2013-05-06 05:02:00,41.0,37.0,30.06,NNE,28,3.0,4.0,84,0.00,,,0.00,,2013-05-06 10:02:00,
2013-05-06 05:12:00,41.0,37.0,30.06,NNE,28,3.0,4.0,84,0.00,,,0.00,,2013-05-06 10:12:00,
2013-05-06 05:22:00,41.0,37.0,30.06,NE,39,3.0,6.0,84,0.00,,,0.00,,2013-05-06 10:22:00,
2013-05-06 05:33:00,41.0,37.0,30.06,NE,37,2.0,4.0,84,0.00,,,0.00,,2013-05-06 10:33:00,
2013-05-06 05:42:00,41.0,37.0,30.06,NE,37,2.0,4.0,84,0.00,,,0.00,,2013-05-06 10:42:00,
2013-05-06 05:52:00,40.0,36.0,30.07,NE,37,2.0,3.0,84,0.00,,,0.00,,2013-05-06 10:52:00,
2013-05-06 06:02:00,39.0,35.0,30.06,NNE,29,3.0,5.0,87,0.00,,,0.00,,2013-05-06 11:02:00,
2013-05-06 06:12:00,39.0,35.0,30.06,NNE,29,3.0,5.0,87,0.00,,,0.00,,2013-05-06 11:12:00,
2013-05-06 06:22:00,39.0,36.0,30.07,NNE,30,2.0,5.0,88,0.00,,,0.00,,2013-05-06 11:22:00,
2013-05-06 06:31:00,39.0,35.0,30.07,NE,37,2.0,3.0,87,0.00,,,0.00,,2013-05-06 11:31:00,
2013-05-06 06:42:00,39.0,35.0,30.07,NE,37,2.0,3.0,87,0.00,,,0.00,,2013-05-06 11:42:00,
2013-05-06 06:52:00,39.0,36.0,30.07,NNE,19,1.0,4.0,88,0.00,,,0.00,,2013-05-06 11:52:00,
2013-05-06 07:01:00,40.0,36.0,30.08,NNE,19,2.0,3.0,87,0.00,,,0.00,,2013-05-06 12:01:00,
2013-05-06 07:12:00,40.0,36.0,30.08,NNE,19,2.0,3.0,87,0.00,,,0.00,,2013-05-06 12:12:00,
2013-05-06 07:21:00,41.0,37.0,30.08,NNE,19,1.0,3.0,85,0.00,,,0.00,,2013-05-06 12:21:00,
2013-05-06 07:32:00,41.0,37.0,30.08,NNE,17,2.0,5.0,86,0.00,,,0.00,,2013-05-06 12:32:00,
2013-05-06 07:42:00,41.0,37.0,30.08,NNE,17,2.0,5.0,86,0.00,,,0.00,,2013-05-06 12:42:00,
2013-05-06 07:51:00,41.0,37.0,30.08,NNE,17,2.0,5.0,86,0.00,,,0.00,,2013-05-06 12:51:00,
2013-05-06 08:01:00,41.0,37.0,30.08,NNE,17,2.0,5.0,86,0.00,,,0.00,,2013-05-06 13:01:00,
2013-05-06 08:21:00,43.0,39.0,30.09,NE,53,2.0,4.0,85,0.00,,,0.00,,2013-05-06 13:21:00,
2013-05-06 08:32:00,45.0,40.0,30.09,NE,46,2.0,4.0,83,0.00,,,0.00,,2013-05-06 13:32:00,
2013-05-06 08:42:00,45.0,40.0,30.09,NE,46,2.0,4.0,83,0.00,,,0.00,,2013-05-06 13:42:00,
2013-05-06 08:52:00,46.0,41.0,30.09,ENE,70,0.0,4.0,81,0.00,,,0.00,,2013-05-06 13:52:00,
2013-05-06 09:01:00,48.0,42.0,30.09,East,84,3.0,6.0,80,0.00,,,0.00,,2013-05-06 14:01:00,
2013-05-06 09:11:00,48.0,42.0,30.09,East,84,3.0,6.0,80,0.00,,,0.00,,2013-05-06 14:11:00,
2013-05-06 09:21:00,50.0,43.0,30.09,ENE,68,4.0,7.0,77,0.00,,,0.00,,2013-05-06 14:21:00,
2013-05-06 09:32:00,51.0,44.0,30.09,NE,56,3.0,6.0,76,0.00,,,0.00,,2013-05-06 14:32:00,
2013-05-06 09:42:00,51.0,44.0,30.09,NE,56,3.0,6.0,76,0.00,,,0.00,,2013-05-06 14:42:00,
2013-05-06 09:51:00,53.0,44.0,30.09,NE,48,1.0,3.0,71,0.00,,,0.00,,2013-05-06 14:51:00,
2013-05-06 10:01:00,55.0,45.0,30.09,NE,45,1.0,3.0,69,0.00,,,0.00,,2013-05-06 15:01:00,
2013-05-06 10:11:00,55.0,45.0,30.09,NE,45,1.0,3.0,69,0.00,,,0.00,,2013-05-06 15:11:00,
2013-05-06 10:21:00,58.0,46.0,30.09,NNE,23,0.0,3.0,65,0.00,,,0.00,,2013-05-06 15:21:00,
2013-05-06 10:33:00,60.0,46.0,30.08,West,266,3.0,4.0,60,0.00,,,0.00,,2013-05-06 15:33:00,
2013-05-06 10:42:00,60.0,46.0,30.08,West,266,3.0,4.0,60,0.00,,,0.00,,2013-05-06 15:42:00,
2013-05-06 10:53:00,61.0,47.0,30.08,WNW,290,1.0,5.0,59,0.00,,,0.00,,2013-05-06 15:53:00,
2013-05-06 11:03:00,63.0,48.0,30.08,WSW,244,1.0,3.0,57,0.00,,,0.00,,2013-05-06 16:03:00,
2013-05-06 11:13:00,63.0,48.0,30.08,WSW,244,1.0,3.0,57,0.00,,,0.00,,2013-05-06 16:13:00,
2013-05-06 11:23:00,63.0,48.0,30.08,West,265,2.0,5.0,57,0.00,,,0.00,,2013-05-06 16:23:00,
2013-05-06 11:32:00,63.0,47.0,30.08,West,265,3.0,6.0,56,0.00,,,0.00,,2013-05-06 16:32:00,
2013-05-06 11:42:00,63.0,47.0,30.08,West,265,3.0,6.0,56,0.00,,,0.00,,2013-05-06 16:42:00,
2013-05-06 11:52:00,62.0,46.0,30.08,WNW,282,2.0,6.0,56,0.00,,,0.00,,2013-05-06 16:52:00,
2013-05-06 12:03:00,64.0,47.0,30.07,West,268,1.0,8.0,55,0.00,,,0.00,,2013-05-06 17:03:00,
2013-05-06 12:12:00,64.0,47.0,30.07,West,268,1.0,8.0,55,0.00,,,0.00,,2013-05-06 17:12:00,
2013-05-06 12:23:00,66.0,49.0,30.07,SW,215,1.0,4.0,55,0.00,,,0.00,,2013-05-06 17:23:00,
2013-05-06 12:31:00,67.0,49.0,30.06,SW,216,1.0,5.0,53,0.00,,,0.00,,2013-05-06 17:31:00,
2013-05-06 12:42:00,67.0,49.0,30.06,SW,216,1.0,5.0,53,0.00,,,0.00,,2013-05-06 17:42:00,
2013-05-06 12:52:00,67.0,48.0,30.06,SSW,211,2.0,8.0,51,0.00,,,0.00,,2013-05-06 17:52:00,
2013-05-06 13:01:00,68.0,48.0,30.06,South,177,1.0,5.0,48,0.00,,,0.00,,2013-05-06 18:01:00,
2013-05-06 13:12:00,68.0,48.0,30.06,South,177,1.0,5.0,48,0.00,,,0.00,,2013-05-06 18:12:00,
2013-05-06 13:21:00,69.0,46.0,30.05,WNW,292,2.0,7.0,44,0.00,,,0.00,,2013-05-06 18:21:00,
2013-05-06 13:31:00,70.0,45.0,30.05,WSW,248,2.0,6.0,41,0.00,,,0.00,,2013-05-06 18:31:00,
2013-05-06 13:43:00,70.0,45.0,30.05,WSW,248,2.0,6.0,41,0.00,,,0.00,,2013-05-06 18:43:00,
2013-05-06 13:52:00,70.0,43.0,30.05,WSW,244,3.0,8.0,38,0.00,,,0.00,,2013-05-06 18:52:00,
2013-05-06 14:01:00,71.0,43.0,30.04,West,261,7.0,13.0,37,0.00,,,0.00,,2013-05-06 19:01:00,
2013-05-06 14:11:00,71.0,43.0,30.04,West,261,7.0,13.0,37,0.00,,,0.00,,2013-05-06 19:11:00,
2013-05-06 14:22:00,72.0,40.0,30.04,North,5,3.0,9.0,31,0.00,,,0.00,,2013-05-06 19:22:00,
2013-05-06 14:32:00,72.0,41.0,30.03,WSW,251,2.0,8.0,33,0.00,,,0.00,,2013-05-06 19:32:00,
2013-05-06 14:41:00,72.0,41.0,30.03,WSW,251,2.0,8.0,33,0.00,,,0.00,,2013-05-06 19:41:00,
2013-05-06 14:52:00,72.0,41.0,30.03,WSW,251,2.0,8.0,33,0.00,,,0.00,,2013-05-06 19:52:00,
2013-05-06 15:02:00,73.0,41.0,30.03,West,260,3.0,8.0,31,0.00,,,0.00,,2013-05-06 20:02:00,
2013-05-06 15:11:00,73.0,41.0,30.03,West,260,3.0,8.0,31,0.00,,,0.00,,2013-05-06 20:11:00,
2013-05-06 15:21:00,73.0,41.0,30.02,SSW,196,6.0,10.0,31,0.00,,,0.00,,2013-05-06 20:21:00,
2013-05-06 15:32:00,73.0,41.0,30.01,SW,215,8.0,12.0,32,0.00,,,0.00,,2013-05-06 20:32:00,
2013-05-06 15:42:00,73.0,41.0,30.01,SW,215,8.0,12.0,32,0.00,,,0.00,,2013-05-06 20:42:00,
2013-05-06 15:52:00,74.0,41.0,30.01,NW,304,3.0,8.0,31,0.00,,,0.00,,2013-05-06 20:52:00,
2013-05-06 16:01:00,73.0,40.0,30.01,SSE,162,5.0,9.0,30,0.00,,,0.00,,2013-05-06 21:01:00,
2013-05-06 16:11:00,73.0,40.0,30.01,SSE,162,5.0,9.0,30,0.00,,,0.00,,2013-05-06 21:11:00,
2013-05-06 16:21:00,74.0,39.0,30.00,SW,214,0.0,6.0,28,0.00,,,0.00,,2013-05-06 21:21:00,
2013-05-06 16:32:00,74.0,40.0,30.00,West,275,3.0,12.0,29,0.00,,,0.00,,2013-05-06 21:32:00,
2013-05-06 16:43:00,74.0,40.0,30.00,West,275,3.0,12.0,29,0.00,,,0.00,,2013-05-06 21:43:00,
2013-05-06 16:53:00,74.0,40.0,29.99,ENE,70,4.0,9.0,29,0.00,,,0.00,,2013-05-06 21:53:00,
2013-05-06 17:03:00,74.0,39.0,29.99,SSE,159,6.0,10.0,28,0.00,,,0.00,,2013-05-06 22:03:00,
2013-05-06 17:12:00,74.0,39.0,29.99,SSE,159,6.0,10.0,28,0.00,,,0.00,,2013-05-06 22:12:00,
2013-05-06 17:22:00,74.0,39.0,29.99,WSW,254,3.0,10.0,28,0.00,,,0.00,,2013-05-06 22:22:00,
2013-05-06 17:33:00,73.0,38.0,29.99,South,172,2.0,8.0,28,0.00,,,0.00,,2013-05-06 22:33:00,
2013-05-06 17:45:00,73.0,38.0,29.99,South,172,2.0,8.0,28,0.00,,,0.00,,2013-05-06 22:45:00,
2013-05-06 17:52:00,72.0,41.0,29.99,SSW,198,3.0,8.0,32,0.00,,,0.00,,2013-05-06 22:52:00,
2013-05-06 18:03:00,70.0,42.0,29.99,SSW,208,4.0,9.0,36,0.00,,,0.00,,2013-05-06 23:03:00,
2013-05-06 18:12:00,70.0,42.0,29.99,SSW,208,4.0,9.0,36,0.00,,,0.00,,2013-05-06 23:12:00,
2013-05-06 18:22:00,70.0,40.0,29.99,SW,225,3.0,8.0,33,0.00,,,0.00,,2013-05-06 23:22:00,
2013-05-06 18:32:00,72.0,40.0,29.99,West,270,3.0,7.0,31,0.00,,,0.00,,2013-05-06 23:32:00,
2013-05-06 18:42:00,72.0,40.0,29.99,West,270,3.0,7.0,31,0.00,,,0.00,,2013-05-06 23:42:00,
2013-05-06 18:52:00,73.0,39.0,29.98,WNW,284,4.0,7.0,29,0.00,,,0.00,,2013-05-06 23:52:00,
2013-05-06 19:01:00,74.0,40.0,29.98,WNW,302,2.0,7.0,29,0.00,,,0.00,,2013-05-07 00:01:00,
2013-05-06 19:11:00,74.0,40.0,29.98,WNW,302,2.0,7.0,29,0.00,,,0.00,,2013-05-07 00:11:00,
2013-05-06 19:21:00,74.0,37.0,29.98,WNW,290,3.0,5.0,26,0.00,,,0.00,,2013-05-07 00:21:00,
2013-05-06 19:31:00,74.0,37.0,29.98,WNW,290,0.0,2.0,26,0.00,,,0.00,,2013-05-07 00:31:00,
2013-05-06 19:41:00,74.0,37.0,29.98,WNW,290,0.0,2.0,26,0.00,,,0.00,,2013-05-07 00:41:00,
2013-05-06 19:51:00,73.0,35.0,29.98,SW,217,0.0,5.0,25,0.00,,,0.00,,2013-05-07 00:51:00,
2013-05-06 20:01:00,73.0,37.0,29.98,SW,217,0.0,2.0,27,0.00,,,0.00,,2013-05-07 01:01:00,
2013-05-06 20:11:00,73.0,37.0,29.98,SW,217,0.0,2.0,27,0.00,,,0.00,,2013-05-07 01:11:00,
2013-05-06 20:21:00,72.0,35.0,29.98,SW,217,0.0,1.0,26,0.00,,,0.00,,2013-05-07 01:21:00,
2013-05-06 20:32:00,71.0,35.0,29.98,SW,217,0.0,1.0,27,0.00,,,0.00,,2013-05-07 01:32:00,
2013-05-06 20:42:00,71.0,35.0,29.98,SW,217,0.0,1.0,27,0.00,,,0.00,,2013-05-07 01:42:00,
2013-05-06 20:52:00,68.0,35.0,29.98,WNW,295,2.0,4.0,30,0.00,,,0.00,,2013-05-07 01:52:00,
2013-05-06 21:02:00,67.0,35.0,29.98,WNW,295,3.0,4.0,30,0.00,,,0.00,,2013-05-07 02:02:00,
2013-05-06 21:11:00,67.0,35.0,29.98,WNW,295,3.0,4.0,30,0.00,,,0.00,,2013-05-07 02:11:00,
2013-05-06 21:21:00,66.0,35.0,29.98,WNW,295,1.0,3.0,32,0.00,,,0.00,,2013-05-07 02:21:00,
2013-05-06 21:31:00,65.0,36.0,29.99,WNW,295,0.0,2.0,34,0.00,,,0.00,,2013-05-07 02:31:00,
2013-05-06 21:41:00,65.0,36.0,29.99,WNW,295,0.0,2.0,34,0.00,,,0.00,,2013-05-07 02:41:00,
2013-05-06 21:52:00,63.0,36.0,29.99,WNW,295,1.0,3.0,36,0.00,,,0.00,,2013-05-07 02:52:00,
2013-05-06 22:01:00,62.0,36.0,30.00,WNW,287,1.0,4.0,38,0.00,,,0.00,,2013-05-07 03:01:00,
2013-05-06 22:11:00,62.0,36.0,30.00,WNW,287,1.0,4.0,38,0.00,,,0.00,,2013-05-07 03:11:00,
2013-05-06 22:21:00,61.0,43.0,30.00,SSW,210,4.0,10.0,52,0.00,,,0.00,,2013-05-07 03:21:00,
2013-05-06 22:32:00,59.0,41.0,30.00,SW,216,0.0,3.0,51,0.00,,,0.00,,2013-05-07 03:32:00,
2013-05-06 22:42:00,59.0,41.0,30.00,SW,216,0.0,3.0,51,0.00,,,0.00,,2013-05-07 03:42:00,
2013-05-06 22:53:00,59.0,38.0,30.00,WSW,257,3.0,4.0,45,0.00,,,0.00,,2013-05-07 03:53:00,
2013-05-06 23:02:00,58.0,38.0,30.00,West,281,3.0,5.0,47,0.00,,,0.00,,2013-05-07 04:02:00,
2013-05-06 23:12:00,58.0,38.0,30.00,West,281,3.0,5.0,47,0.00,,,0.00,,2013-05-07 04:12:00,
2013-05-06 23:23:00,59.0,38.0,30.00,WNW,292,2.0,4.0,45,0.00,,,0.00,,2013-05-07 04:23:00,
2013-05-06 23:33:00,60.0,39.0,30.00,WNW,292,1.0,3.0,46,0.00,,,0.00,,2013-05-07 04:33:00,
2013-05-06 23:42:00,60.0,39.0,30.00,WNW,292,1.0,3.0,46,0.00,,,0.00,,2013-05-07 04:42:00,
2013-05-06 23:52:00,59.0,39.0,30.00,WNW,292,1.0,2.0,47,0.00,,,0.00,,2013-05-07 04:52:00,